SCP
0 0 0 0 0 0 0 0 0 0 0 0 0 0 0 0 0 0 0 0 0 0 0 0 0 0 0 -0 0 0 0 0 0 0 0 0 0 0 0 0 0 0 0 0 0 0 0 0 0
0 0 0 0 0 0 0 0 0 0 0 0 0 0 0 0 0 0 0 0 0 0 0 0 0 0 0 0 0 0 0 0 0 0 0 0 0 0 0 0 0 0 0 0 0 0 0 0 0
0 0 0 0 0 0 0 0 0 0 0 0 0 0 0 0 0 0 0 0 0 0 0 0 0 0 0 0 0 0 0 0 0 0 0 0 0 0 0 0 0 0 0 0 0 0 0 0 0
0 0 0 0 0 0 0 0 0 0 0 0 0 0 0 0 0 0 0 0 0 0 0 0 0 0 0 0 0 0 0 0 0 0 0 0 0 0 0 0 0 0 0 0 0 0 0 0 0
0 0 0 0 0 0 0 0 0 0 0 0 0 0 0 0 0 0 0 0 0 0 0 0 0 0 0 0 0 0 0 0 0 0 0 0 0 0 0 0 0 0 0 0 0 0 0 0 0
0 0 0 0 0 0 0 0 0 0 0 0 0 0 0 0 0 0 0 0 0 0 0 0 0 0 0 0 0 0 0 0 0 0 0 0 0 0 0 0 0 0 0 0 0 0 0 0 0
0 0 0 0 0 0 0 0 0 0 0 0 0 0 0 0 0 0 0 0 0 0 0 0 0 0 0 0 0 0 0 0 0 0 0 0 0 0 0 0 0 0 0 0 0 0 0 0 0
0 0 0 0 0 0 0 0 0 0 0 0 0 0 0 0 0 0 0 0 0 0 0 0 0 0 0 0 0 0 0 0 0 0 0 0 0 0 0 0 0 0 0 0 0 0 0 0 0
0 0 0 0 0 0 0 0 0 0 0 0 0 0 0 0 0 0 0 0 0 0 0 0 0 0 0 0 0 0 0 0 0 0 0 0 0 0 0 0 0 0 0 0 0 0 0 0 0
0 0 0 0 0 0 0 0 0 0 0 0 0 0 0 0 0 0 0 0 0 0 0 0 0 0 0 0 0 0 0 0 0 0 0 0 0 0 0 0 0 0 0 0 0 0 0 0 0
0 0 0 0 0 0 0 0 0 0 0 0 0 0 0 0 0 0 0 0 0 0 0 0 0 0 0 0 0 0 0 0 0 0 0 0 0 0 0 0 0 0 0 0 0 0 0 0 0
0 0 0 0 0 0 0 0 0 0 0 0 0 0 0 0 0 0 0 0 0 0 0 0 0 0 0 0 0 0 0 0 0 0 0 0 0 0 0 0 0 0 0 0 0 0 0 0 0
0 0 0 0 0 0 0 0 0 0 0 0 0 0 0 0 0 0 0 0 0 0 0 0 0 0 0 0 0 0 0 0 0 0 0 0 0 0 0 0 0 0 0 0 0 0 0 0 0
0 0 0 0 0 0 0 0 0 0 0 0 0 0 0 0 0 0 0 0 0 0 0 0 0 0 0 0 0 0 0 0 0 0 0 0 0 0 0 0 0 0 0 0 0 0 0 0 0
0 0 0 0 0 0 0 0 0 0 0 0 0 0 0 0 0 0 0 0 0 0 0 0 0 0 0 0 0 0 0 0 0 0 0 0 0 0 0 0 0 0 0 0 0 0 0 0 0
0 0 0 0 0 0 0 0 0 0 0 0 0 0 0 0 0 0 0 0 0 0 0 0 0 0 0 0 0 0 0 0 0 0 0 0 0 0 0 0 0 0 0 0 0 0 0 0 0
0 0 0 0 0 0 0 0 0 0 0 0 0 0 0 0 0 0 0 0 0 0 0 0 0 0 0 0 0 0 0 0 0 0 0 0 0 0 0 0 0 0 0 0 0 0 0 0 0
0 0 0 0 0 0 0 0 0 0 0 0 0 0 0 0 0 0 0 0 0 0 0 0 0 0 0 0 0 0 0 0 0 0 0 0 0 0 0 0 0 0 0 0 0 0 0 0 -0
0 0 0 0 0 0 0 0 0 0 0 0 0 0 0 0 0 0 0 0 0 0 0 0 0 0 0 0 0 0 0 0 0 0 0 0 0 0 0 0 0 0 0 0 0 0 0 0 0
0 0 0 0 0 0 0 0 0 0 0 0 0 0 0 0 0 0 0 0 0 0 0 0 0 0 0 0 0 0 0 0 0 0 0 0 0 0 0 0 0 0 0 0 0 0 0 0 0
0 0 0 0 0 0 0 0 0 0 0 0 0 0 0 0 0 0 0 0 0 0 0 0 0 0 0 0 0 0 0 0 0 0 0 0 0 0 0 0 0 0 0 0 0 0 0 0 0
0 0 0 0 0 0 0 0 0 0 0 0 0 0 0 0 0 0 0 0 0 0 0 0 0 0 0 0 0 0 0 0 0 0 0 0 0 0 0 0 0 0 0 0 0 0 0 0 0
0 0 0 0 0 0 0 0 0 0 0 0 0 0 0 0 0 0 0 0 0 0 0 0 0 0 0 0 0 0 0 0 0 0 0 0 0 0 0 0 0 0 0 0 0 0 0 0 0
0 0 0 0 0 0 0 0 0 0 0 0 0 0 0 0 0 0 0 0 0 0 0 0 0 0 0 0 0 0 0 0 0 0 0 0 0 0 0 0 0 0 0 0 0 0 0 0 0
0 0 0 0 0 0 0 0 0 0 0 0 0 0 0 0 0 0 0 0 0 0 0 0 0 0 0 0 0 0 0 0 0 0 0 0 0 0 0 0 0 0 0 0 0 0 0 0 0
0 0 0 0 0 0 0 0 0 0 0 0 0 0 0 0 0 0 0 0 0 0 0 0 0 0 0 0 0 0 0 0 0 0 0 0 0 0 0 0 0 0 0 0 0 0 0 0 0
0 0 0 0 0 0 0 0 0 0 0 0 0 0 0 0 0 0 0 0 0 0 0 0 0 0 0 0 0 0 0 0 0 0 0 0 0 0 0 0 0 0 0 0 0 0 0 0 0
0 0 0 0 0 0 0 0 0 0 0 0 0 0 0 0 0 0 0 0 0 0 0 0 0 0 0 0 0 0 0 0 0 0 0 0 0 0 0 0 0 0 0 0 0 0 0 0 0
0 0 0 0 0 0 0 0 0 0 0 0 0 0 0 0 0 0 0 0 0 0 0 0 0 0 0 0 0 0 0 0 0 0 0 0 0 0 0 0 0 0 0 0 0 0 0 0 0
0 0 0 0 0 0 0 0 0 0 0 0 0 0 0 0 -0 0 0 0 0 0 0 0 0 0 0 0 0 0 0 0 0 0 0 0 0 0 0 0 0 0 0 0 0 0 0 0 0
Wind_Speed_500mb
20 17 11 2 7 4 10 6 4 5 5 2 5 4 2 10 3 2 19 39 48 41 35 30 27 20 15 15 15 20 20 17 15 13 10 8 7 5 4 4 4 6 8 10 13 15 12 10 10
17 15 12 6 12 19 16 10 15 7 5 10 7 2 5 4 6 10 23 40 49 41 36 31 25 18 17 16 18 18 19 16 13 10 9 6 5 5 6 8 9 10 13 16 16 17 16 14 14
15 21 10 6 14 26 12 14 8 4 10 6 6 3 2 5 3 21 20 40 44 37 35 29 27 23 20 22 23 20 19 16 13 11 9 8 8 9 10 12 14 16 17 17 20 21 21 19 19
15 9 5 13 23 14 15 6 2 9 9 2 2 5 4 5 14 18 32 37 39 36 30 27 28 26 24 23 18 16 14 13 13 12 10 9 9 10 11 14 16 18 19 21 21 21 22 22 23
19 7 10 14 24 7 7 8 8 10 8 8 8 5 4 9 16 18 35 36 33 33 28 27 26 25 22 20 18 16 14 12 9 7 8 8 10 12 15 17 19 21 23 25 26 27 26 25 26
6 5 9 24 17 9 7 5 8 10 8 9 9 11 6 16 16 29 36 36 35 33 31 31 29 26 23 19 16 14 11 9 7 7 8 9 12 15 17 20 22 23 25 26 27 28 29 29 30
7 8 7 3 5 10 5 5 11 13 10 7 4 8 7 22 26 36 39 37 34 30 28 26 24 22 18 16 14 11 9 7 7 8 10 12 13 14 17 19 20 22 23 25 27 27 27 28 29
4 5 8 8 8 5 5 8 2 8 9 7 12 5 6 26 32 42 42 38 35 32 30 28 26 23 19 15 12 10 8 7 8 10 11 13 15 16 17 17 18 19 21 23 25 25 25 26 27
6 7 8 6 9 3 3 9 3 5 4 8 9 3 7 21 35 46 45 43 40 37 33 31 26 22 19 15 12 9 8 8 9 11 12 13 14 15 16 17 18 20 21 22 23 24 24 25 26
5 6 7 5 3 1 1 4 3 6 11 11 9 14 12 25 38 46 49 48 44 42 38 31 27 23 19 15 12 10 10 10 12 13 13 15 16 16 17 18 19 19 20 22 24 26 28 28 29
3 3 4 4 3 4 4 4 4 7 12 12 11 17 20 30 40 44 45 42 42 41 38 33 28 23 19 14 12 12 12 12 13 15 16 17 18 19 19 21 23 24 25 26 28 29 31 32 34
4 4 1 3 1 3 4 10 8 13 3 4 8 12 20 30 39 43 45 44 46 44 39 36 30 24 19 16 15 14 13 13 14 16 17 17 19 21 23 24 27 28 29 30 32 34 36 38 39
4 7 5 2 2 1 8 12 12 21 17 22 20 16 17 26 36 40 42 43 43 44 42 36 30 25 21 18 15 14 14 15 15 17 18 18 20 22 24 27 30 32 33 35 36 38 39 40 42
5 6 6 4 4 3 7 5 6 3 3 8 24 27 22 28 33 40 46 45 46 45 43 38 33 27 23 19 17 16 15 15 17 20 21 21 22 24 27 29 32 35 35 37 38 40 43 45 47
10 5 5 11 11 4 10 10 13 9 14 13 9 16 23 23 31 37 38 45 44 44 43 39 35 29 25 23 19 18 19 19 22 25 26 26 26 27 30 33 36 37 37 37 39 43 46 49 51
3 2 6 6 20 4 10 3 2 1 3 6 6 6 12 20 27 32 37 41 45 46 44 41 37 32 29 25 23 22 22 24 28 29 29 27 28 31 35 38 39 38 38 41 43 48 49 52 55
6 4 2 5 11 10 5 10 4 1 12 23 21 23 25 28 28 31 36 40 44 45 46 44 39 35 31 29 26 25 27 28 31 28 27 29 31 35 39 40 39 38 40 43 45 49 53 58 62
3 3 1 3 11 11 15 28 26 22 26 33 33 29 26 30 35 34 33 40 44 45 47 45 40 36 34 32 29 29 30 31 30 28 29 32 35 38 40 39 37 38 41 45 48 53 57 61 65
6 3 3 4 9 14 8 30 35 32 19 15 14 14 16 20 18 24 44 38 44 47 48 47 40 37 35 32 31 31 32 32 32 31 32 35 38 40 39 36 36 39 43 48 52 56 60 61 62
8 3 5 5 7 10 15 37 16 12 11 14 16 20 24 26 22 15 20 42 37 44 45 44 39 35 33 32 33 34 35 35 34 36 38 40 41 40 37 35 37 42 45 49 52 55 58 56 54
9 5 4 5 17 2 27 10 9 9 14 16 15 16 24 30 29 22 12 23 28 35 39 38 33 33 32 32 34 37 37 37 38 39 42 41 39 37 35 37 41 43 47 50 52 55 55 55 51
5 2 2 5 10 5 15 5 9 9 17 30 34 32 29 31 31 25 17 6 19 22 30 34 32 31 30 32 35 34 38 41 43 43 42 40 37 36 36 40 43 46 49 51 54 55 55 52 48
7 4 6 5 4 3 10 3 6 3 15 22 37 39 35 28 31 29 18 10 8 16 24 27 27 27 29 31 32 36 41 43 45 43 40 37 36 36 39 42 44 47 49 52 56 56 53 50 45
12 4 5 3 2 3 5 8 8 9 11 16 26 35 34 33 32 28 22 12 4 7 16 21 25 28 30 27 31 38 43 44 45 40 38 36 36 39 43 45 47 49 50 54 57 56 53 49 44
3 3 2 1 1 2 2 7 6 15 18 10 25 39 43 46 45 39 31 20 8 7 16 24 29 27 25 28 34 41 45 45 42 40 38 38 39 41 43 46 48 49 52 56 57 56 53 49 45
4 2 2 5 3 4 1 9 12 8 16 26 30 33 39 43 42 40 34 25 17 14 20 27 29 29 31 37 44 49 46 44 41 38 38 40 42 44 45 47 47 48 52 55 56 55 53 51 49
5 2 4 12 2 4 2 8 6 18 4 20 29 40 43 40 43 39 33 28 22 19 21 27 33 42 49 52 53 53 50 45 41 39 40 43 44 45 47 48 48 49 52 53 52 50 49 45 41
4 9 5 1 5 8 5 11 10 22 15 9 30 36 42 40 39 36 32 29 27 26 25 28 35 45 52 55 54 52 53 49 44 42 42 45 48 48 49 49 49 50 51 51 49 48 46 45 43
7 4 5 2 4 6 5 8 8 17 19 12 18 24 36 38 40 34 28 28 29 30 31 32 34 39 46 53 62 61 56 53 53 51 48 47 52 53 52 50 49 49 48 48 46 47 45 42 40
5 4 10 7 10 2 5 13 3 12 22 15 18 29 35 37 31 27 27 30 31 34 40 44 45 42 40 45 55 64 72 63 64 62 58 56 57 58 54 51 49 48 46 44 42 42 39 38 35
Wind_Direction_500mb
236 226 217 223 238 270 251 214 312 218 208 110 131 220 271 15 305 14 158 165 160 165 173 159 165 173 183 187 167 157 156 161 156 158 157 153 160 166 179 184 228 262 273 286 297 313 325 317 312
227 206 172 183 234 233 227 220 226 238 80 130 132 168 208 96 73 136 150 166 169 177 181 182 174 176 208 202 183 169 166 168 172 179 192 190 215 233 251 261 268 268 275 284 286 291 296 297 291
189 174 184 214 240 237 254 202 261 160 150 171 168 139 58 105 128 150 167 165 174 180 186 184 185 202 219 212 194 181 170 175 180 199 204 210 235 251 266 274 277 280 282 282 286 289 290 289 284
146 147 95 230 226 249 239 158 155 167 203 217 215 150 90 179 159 173 165 163 175 182 183 186 190 205 205 201 186 177 176 178 181 191 203 217 235 251 264 273 281 285 283 285 284 286 290 289 286
151 168 200 234 239 247 231 276 221 203 182 182 182 141 129 179 163 175 166 160 169 172 171 173 181 184 185 180 172 171 176 179 189 206 231 247 261 274 281 284 285 287 288 288 288 288 286 285 284
158 199 203 225 228 230 240 249 200 209 185 169 184 153 158 180 178 167 167 167 172 178 175 175 179 178 179 174 174 174 179 193 209 234 256 270 278 284 287 290 290 290 293 292 290 288 287 286 282
189 203 218 194 249 242 202 166 209 200 186 176 166 185 170 186 178 175 173 174 178 180 182 180 180 182 182 175 178 186 195 218 242 265 279 288 292 290 291 291 294 295 295 298 299 297 296 294 290
166 228 174 206 219 239 146 176 209 210 190 203 183 208 168 195 182 179 179 179 181 181 181 182 182 180 178 184 189 201 222 247 267 282 291 292 295 299 301 302 303 302 302 302 305 305 305 302 300
152 215 210 206 190 112 151 206 171 218 173 191 208 186 196 188 185 182 185 187 187 186 186 186 183 186 192 198 208 228 242 262 278 287 294 301 300 307 307 309 309 310 311 311 310 310 309 308 306
209 230 207 30 31 48 210 240 186 236 199 214 221 222 217 191 192 193 196 196 193 193 192 191 193 197 200 208 218 236 261 277 286 294 301 306 307 311 312 314 314 314 314 313 313 313 313 312 311
162 254 124 113 46 330 300 248 276 239 227 229 230 212 217 198 200 203 205 208 205 200 199 199 201 205 209 219 230 246 261 272 288 295 302 307 311 316 318 319 318 318 318 317 315 314 313 313 311
173 83 65 128 23 348 316 307 262 236 243 195 223 232 223 213 214 214 211 211 207 205 204 206 207 211 221 231 243 255 267 282 293 299 303 307 309 310 312 314 315 316 315 315 315 315 314 313 313
172 148 116 119 58 320 291 270 286 270 256 255 252 251 241 229 223 221 218 216 214 210 210 212 216 220 227 236 248 262 276 291 295 294 297 301 302 306 311 315 317 317 317 316 315 314 313 312 312
98 126 110 42 8 354 311 261 327 249 218 247 252 246 242 236 231 226 223 218 216 214 215 218 221 224 231 235 249 266 279 291 297 297 298 301 301 306 310 314 316 315 316 316 316 316 317 316 315
126 146 134 36 350 350 326 237 229 258 265 272 265 239 237 240 235 236 236 227 223 220 219 220 222 227 232 238 251 265 279 293 297 297 296 298 301 306 311 315 316 316 316 317 318 319 319 318 317
107 209 204 51 5 355 326 240 140 106 287 274 258 262 255 250 250 245 238 232 229 224 221 220 224 230 235 241 252 267 282 292 297 293 292 294 298 306 313 316 317 318 319 320 322 321 321 319 318
40 172 190 152 36 320 337 292 126 272 306 288 275 279 279 268 259 253 243 233 229 224 220 221 226 231 237 243 252 266 279 289 294 292 289 293 301 308 311 314 314 316 318 320 321 321 321 320 318
143 138 147 326 11 331 292 273 285 297 294 293 292 292 288 276 265 256 248 238 229 223 220 222 227 232 236 242 251 264 277 286 287 288 289 293 301 306 309 311 312 315 318 319 320 320 320 320 318
90 90 332 64 21 322 318 296 293 320 308 328 7 20 355 331 311 268 244 235 228 220 218 220 226 232 236 243 252 264 277 279 284 286 289 293 298 303 306 307 310 314 316 318 320 320 320 321 319
53 72 12 293 17 320 331 296 338 24 14 357 356 4 358 353 353 324 260 227 225 221 219 220 227 233 237 244 253 265 274 277 284 288 290 293 297 300 302 305 310 313 315 316 319 320 322 322 322
52 56 28 313 324 76 325 268 40 42 37 36 29 13 11 8 4 4 342 218 211 212 217 219 227 230 235 242 256 265 271 279 285 289 290 292 295 298 301 306 309 312 314 316 318 321 322 321 321
141 47 18 353 349 325 0 297 59 19 69 49 29 24 12 13 17 18 27 159 199 211 217 218 223 226 230 246 258 265 275 284 290 289 289 290 292 296 300 305 310 314 316 318 319 319 317 316 314
96 66 65 64 84 279 21 243 82 18 19 23 25 19 14 16 19 24 34 66 163 192 199 207 212 221 238 251 257 272 283 288 288 287 285 286 289 294 301 307 310 312 313 315 314 313 311 310 306
129 108 77 103 132 155 17 346 66 27 340 337 5 13 19 25 26 27 30 43 79 176 194 202 216 229 243 256 277 287 291 292 289 287 285 283 289 296 302 306 308 309 310 310 310 308 307 305 301
155 208 311 210 50 37 18 270 5 353 6 23 48 50 49 42 38 33 28 20 352 251 232 232 237 240 247 275 290 297 297 292 286 285 284 286 291 295 300 303 304 304 306 308 308 307 305 302 297
54 283 155 270 256 335 156 226 150 81 83 73 69 51 35 35 36 32 27 21 6 328 298 285 271 248 266 287 297 298 295 288 282 282 281 284 290 294 296 298 298 301 305 307 308 305 303 298 296
154 165 70 101 60 257 283 259 324 154 123 68 51 40 30 24 26 24 19 14 353 332 311 290 279 273 278 289 297 302 298 289 280 275 276 283 287 291 294 296 297 299 303 306 305 305 303 298 293
305 129 131 72 206 246 215 283 209 197 170 47 36 26 24 20 17 14 10 7 0 347 326 303 290 280 276 277 283 292 296 289 281 278 283 285 287 287 289 291 292 297 302 306 306 306 303 299 295
154 191 56 350 283 247 261 235 208 171 128 90 45 26 19 18 15 13 12 10 7 6 358 349 330 308 292 281 273 273 279 280 274 271 273 280 283 284 284 286 288 294 300 302 303 304 305 302 298
291 260 204 216 196 223 323 261 67 122 127 69 43 34 23 18 10 3 354 355 350 347 346 344 341 341 330 308 291 281 268 271 269 270 270 275 275 276 278 279 283 290 295 297 299 302 302 301 300
Wind_Speed_850mb
20 17 11 2 7 4 10 6 4 5 5 2 5 4 2 10 3 2 19 39 48 41 35 30 27 20 15 15 15 20 20 17 15 13 10 8 7 5 4 4 4 6 8 10 13 15 12 10 10
17 15 12 6 12 19 16 10 15 7 5 10 7 2 5 4 6 10 23 40 49 41 36 31 25 18 17 16 18 18 19 16 13 10 9 6 5 5 6 8 9 10 13 16 16 17 16 14 14
15 21 10 6 14 26 12 14 8 4 10 6 6 3 2 5 3 21 20 40 44 37 35 29 27 23 20 22 23 20 19 16 13 11 9 8 8 9 10 12 14 16 17 17 20 21 21 19 19
15 9 5 13 23 14 15 6 2 9 9 2 2 5 4 5 14 18 32 37 39 36 30 27 28 26 24 23 18 16 14 13 13 12 10 9 9 10 11 14 16 18 19 21 21 21 22 22 23
19 7 10 14 24 7 7 8 8 10 8 8 8 5 4 9 16 18 35 36 33 33 28 27 26 25 22 20 18 16 14 12 9 7 8 8 10 12 15 17 19 21 23 25 26 27 26 25 26
6 5 9 24 17 9 7 5 8 10 8 9 9 11 6 16 16 29 36 36 35 33 31 31 29 26 23 19 16 14 11 9 7 7 8 9 12 15 17 20 22 23 25 26 27 28 29 29 30
7 8 7 3 5 10 5 5 11 13 10 7 4 8 7 22 26 36 39 37 34 30 28 26 24 22 18 16 14 11 9 7 7 8 10 12 13 14 17 19 20 22 23 25 27 27 27 28 29
4 5 8 8 8 5 5 8 2 8 9 7 12 5 6 26 32 42 42 38 35 32 30 28 26 23 19 15 12 10 8 7 8 10 11 13 15 16 17 17 18 19 21 23 25 25 25 26 27
6 7 8 6 9 3 3 9 3 5 4 8 9 3 7 21 35 46 45 43 40 37 33 31 26 22 19 15 12 9 8 8 9 11 12 13 14 15 16 17 18 20 21 22 23 24 24 25 26
5 6 7 5 3 1 1 4 3 6 11 11 9 14 12 25 38 46 49 48 44 42 38 31 27 23 19 15 12 10 10 10 12 13 13 15 16 16 17 18 19 19 20 22 24 26 28 28 29
3 3 4 4 3 4 4 4 4 7 12 12 11 17 20 30 40 44 45 42 42 41 38 33 28 23 19 14 12 12 12 12 13 15 16 17 18 19 19 21 23 24 25 26 28 29 31 32 34
4 4 1 3 1 3 4 10 8 13 3 4 8 12 20 30 39 43 45 44 46 44 39 36 30 24 19 16 15 14 13 13 14 16 17 17 19 21 23 24 27 28 29 30 32 34 36 38 39
4 7 5 2 2 1 8 12 12 21 17 22 20 16 17 26 36 40 42 43 43 44 42 36 30 25 21 18 15 14 14 15 15 17 18 18 20 22 24 27 30 32 33 35 36 38 39 40 42
5 6 6 4 4 3 7 5 6 3 3 8 24 27 22 28 33 40 46 45 46 45 43 38 33 27 23 19 17 16 15 15 17 20 21 21 22 24 27 29 32 35 35 37 38 40 43 45 47
10 5 5 11 11 4 10 10 13 9 14 13 9 16 23 23 31 37 38 45 44 44 43 39 35 29 25 23 19 18 19 19 22 25 26 26 26 27 30 33 36 37 37 37 39 43 46 49 51
3 2 6 6 20 4 10 3 2 1 3 6 6 6 12 20 27 32 37 41 45 46 44 41 37 32 29 25 23 22 22 24 28 29 29 27 28 31 35 38 39 38 38 41 43 48 49 52 55
6 4 2 5 11 10 5 10 4 1 12 23 21 23 25 28 28 31 36 40 44 45 46 44 39 35 31 29 26 25 27 28 31 28 27 29 31 35 39 40 39 38 40 43 45 49 53 58 62
3 3 1 3 11 11 15 28 26 22 26 33 33 29 26 30 35 34 33 40 44 45 47 45 40 36 34 32 29 29 30 31 30 28 29 32 35 38 40 39 37 38 41 45 48 53 57 61 65
6 3 3 4 9 14 8 30 35 32 19 15 14 14 16 20 18 24 44 38 44 47 48 47 40 37 35 32 31 31 32 32 32 31 32 35 38 40 39 36 36 39 43 48 52 56 60 61 62
8 3 5 5 7 10 15 37 16 12 11 14 16 20 24 26 22 15 20 42 37 44 45 44 39 35 33 32 33 34 35 35 34 36 38 40 41 40 37 35 37 42 45 49 52 55 58 56 54
9 5 4 5 17 2 27 10 9 9 14 16 15 16 24 30 29 22 12 23 28 35 39 38 33 33 32 32 34 37 37 37 38 39 42 41 39 37 35 37 41 43 47 50 52 55 55 55 51
5 2 2 5 10 5 15 5 9 9 17 30 34 32 29 31 31 25 17 6 19 22 30 34 32 31 30 32 35 34 38 41 43 43 42 40 37 36 36 40 43 46 49 51 54 55 55 52 48
7 4 6 5 4 3 10 3 6 3 15 22 37 39 35 28 31 29 18 10 8 16 24 27 27 27 29 31 32 36 41 43 45 43 40 37 36 36 39 42 44 47 49 52 56 56 53 50 45
12 4 5 3 2 3 5 8 8 9 11 16 26 35 34 33 32 28 22 12 4 7 16 21 25 28 30 27 31 38 43 44 45 40 38 36 36 39 43 45 47 49 50 54 57 56 53 49 44
3 3 2 1 1 2 2 7 6 15 18 10 25 39 43 46 45 39 31 20 8 7 16 24 29 27 25 28 34 41 45 45 42 40 38 38 39 41 43 46 48 49 52 56 57 56 53 49 45
4 2 2 5 3 4 1 9 12 8 16 26 30 33 39 43 42 40 34 25 17 14 20 27 29 29 31 37 44 49 46 44 41 38 38 40 42 44 45 47 47 48 52 55 56 55 53 51 49
5 2 4 12 2 4 2 8 6 18 4 20 29 40 43 40 43 39 33 28 22 19 21 27 33 42 49 52 53 53 50 45 41 39 40 43 44 45 47 48 48 49 52 53 52 50 49 45 41
4 9 5 1 5 8 5 11 10 22 15 9 30 36 42 40 39 36 32 29 27 26 25 28 35 45 52 55 54 52 53 49 44 42 42 45 48 48 49 49 49 50 51 51 49 48 46 45 43
7 4 5 2 4 6 5 8 8 17 19 12 18 24 36 38 40 34 28 28 29 30 31 32 34 39 46 53 62 61 56 53 53 51 48 47 52 53 52 50 49 49 48 48 46 47 45 42 40
5 4 10 7 10 2 5 13 3 12 22 15 18 29 35 37 31 27 27 30 31 34 40 44 45 42 40 45 55 64 72 63 64 62 58 56 57 58 54 51 49 48 46 44 42 42 39 38 35
Wind_Direction_850mb
236 226 217 223 238 270 251 214 312 218 208 110 131 220 271 15 305 14 158 165 160 165 173 159 165 173 183 187 167 157 156 161 156 158 157 153 160 166 179 184 228 262 273 286 297 313 325 317 312
227 206 172 183 234 233 227 220 226 238 80 130 132 168 208 96 73 136 150 166 169 177 181 182 174 176 208 202 183 169 166 168 172 179 192 190 215 233 251 261 268 268 275 284 286 291 296 297 291
189 174 184 214 240 237 254 202 261 160 150 171 168 139 58 105 128 150 167 165 174 180 186 184 185 202 219 212 194 181 170 175 180 199 204 210 235 251 266 274 277 280 282 282 286 289 290 289 284
146 147 95 230 226 249 239 158 155 167 203 217 215 150 90 179 159 173 165 163 175 182 183 186 190 205 205 201 186 177 176 178 181 191 203 217 235 251 264 273 281 285 283 285 284 286 290 289 286
151 168 200 234 239 247 231 276 221 203 182 182 182 141 129 179 163 175 166 160 169 172 171 173 181 184 185 180 172 171 176 179 189 206 231 247 261 274 281 284 285 287 288 288 288 288 286 285 284
158 199 203 225 228 230 240 249 200 209 185 169 184 153 158 180 178 167 167 167 172 178 175 175 179 178 179 174 174 174 179 193 209 234 256 270 278 284 287 290 290 290 293 292 290 288 287 286 282
189 203 218 194 249 242 202 166 209 200 186 176 166 185 170 186 178 175 173 174 178 180 182 180 180 182 182 175 178 186 195 218 242 265 279 288 292 290 291 291 294 295 295 298 299 297 296 294 290
166 228 174 206 219 239 146 176 209 210 190 203 183 208 168 195 182 179 179 179 181 181 181 182 182 180 178 184 189 201 222 247 267 282 291 292 295 299 301 302 303 302 302 302 305 305 305 302 300
152 215 210 206 190 112 151 206 171 218 173 191 208 186 196 188 185 182 185 187 187 186 186 186 183 186 192 198 208 228 242 262 278 287 294 301 300 307 307 309 309 310 311 311 310 310 309 308 306
209 230 207 30 31 48 210 240 186 236 199 214 221 222 217 191 192 193 196 196 193 193 192 191 193 197 200 208 218 236 261 277 286 294 301 306 307 311 312 314 314 314 314 313 313 313 313 312 311
162 254 124 113 46 330 300 248 276 239 227 229 230 212 217 198 200 203 205 208 205 200 199 199 201 205 209 219 230 246 261 272 288 295 302 307 311 316 318 319 318 318 318 317 315 314 313 313 311
173 83 65 128 23 348 316 307 262 236 243 195 223 232 223 213 214 214 211 211 207 205 204 206 207 211 221 231 243 255 267 282 293 299 303 307 309 310 312 314 315 316 315 315 315 315 314 313 313
172 148 116 119 58 320 291 270 286 270 256 255 252 251 241 229 223 221 218 216 214 210 210 212 216 220 227 236 248 262 276 291 295 294 297 301 302 306 311 315 317 317 317 316 315 314 313 312 312
98 126 110 42 8 354 311 261 327 249 218 247 252 246 242 236 231 226 223 218 216 214 215 218 221 224 231 235 249 266 279 291 297 297 298 301 301 306 310 314 316 315 316 316 316 316 317 316 315
126 146 134 36 350 350 326 237 229 258 265 272 265 239 237 240 235 236 236 227 223 220 219 220 222 227 232 238 251 265 279 293 297 297 296 298 301 306 311 315 316 316 316 317 318 319 319 318 317
107 209 204 51 5 355 326 240 140 106 287 274 258 262 255 250 250 245 238 232 229 224 221 220 224 230 235 241 252 267 282 292 297 293 292 294 298 306 313 316 317 318 319 320 322 321 321 319 318
40 172 190 152 36 320 337 292 126 272 306 288 275 279 279 268 259 253 243 233 229 224 220 221 226 231 237 243 252 266 279 289 294 292 289 293 301 308 311 314 314 316 318 320 321 321 321 320 318
143 138 147 326 11 331 292 273 285 297 294 293 292 292 288 276 265 256 248 238 229 223 220 222 227 232 236 242 251 264 277 286 287 288 289 293 301 306 309 311 312 315 318 319 320 320 320 320 318
90 90 332 64 21 322 318 296 293 320 308 328 7 20 355 331 311 268 244 235 228 220 218 220 226 232 236 243 252 264 277 279 284 286 289 293 298 303 306 307 310 314 316 318 320 320 320 321 319
53 72 12 293 17 320 331 296 338 24 14 357 356 4 358 353 353 324 260 227 225 221 219 220 227 233 237 244 253 265 274 277 284 288 290 293 297 300 302 305 310 313 315 316 319 320 322 322 322
52 56 28 313 324 76 325 268 40 42 37 36 29 13 11 8 4 4 342 218 211 212 217 219 227 230 235 242 256 265 271 279 285 289 290 292 295 298 301 306 309 312 314 316 318 321 322 321 321
141 47 18 353 349 325 0 297 59 19 69 49 29 24 12 13 17 18 27 159 199 211 217 218 223 226 230 246 258 265 275 284 290 289 289 290 292 296 300 305 310 314 316 318 319 319 317 316 314
96 66 65 64 84 279 21 243 82 18 19 23 25 19 14 16 19 24 34 66 163 192 199 207 212 221 238 251 257 272 283 288 288 287 285 286 289 294 301 307 310 312 313 315 314 313 311 310 306
129 108 77 103 132 155 17 346 66 27 340 337 5 13 19 25 26 27 30 43 79 176 194 202 216 229 243 256 277 287 291 292 289 287 285 283 289 296 302 306 308 309 310 310 310 308 307 305 301
155 208 311 210 50 37 18 270 5 353 6 23 48 50 49 42 38 33 28 20 352 251 232 232 237 240 247 275 290 297 297 292 286 285 284 286 291 295 300 303 304 304 306 308 308 307 305 302 297
54 283 155 270 256 335 156 226 150 81 83 73 69 51 35 35 36 32 27 21 6 328 298 285 271 248 266 287 297 298 295 288 282 282 281 284 290 294 296 298 298 301 305 307 308 305 303 298 296
154 165 70 101 60 257 283 259 324 154 123 68 51 40 30 24 26 24 19 14 353 332 311 290 279 273 278 289 297 302 298 289 280 275 276 283 287 291 294 296 297 299 303 306 305 305 303 298 293
305 129 131 72 206 246 215 283 209 197 170 47 36 26 24 20 17 14 10 7 0 347 326 303 290 280 276 277 283 292 296 289 281 278 283 285 287 287 289 291 292 297 302 306 306 306 303 299 295
154 191 56 350 283 247 261 235 208 171 128 90 45 26 19 18 15 13 12 10 7 6 358 349 330 308 292 281 273 273 279 280 274 271 273 280 283 284 284 286 288 294 300 302 303 304 305 302 298
291 260 204 216 196 223 323 261 67 122 127 69 43 34 23 18 10 3 354 355 350 347 346 344 341 341 330 308 291 281 268 271 269 270 270 275 275 276 278 279 283 290 295 297 299 302 302 301 300